星链-5199 (STARLINK-5199 )

导读

STARLINK-5199是美国太空探索技术公司(SpaceX)星链(Starlink)互联网卫星项目中的一颗卫星,于2022年10月28日发射入轨,属于星链低轨卫星星座组网卫星,旨在为全球提供高速低延迟的宽带互联网服务,进一步扩充星链星座的在轨卫星规模,提升全球覆盖性能与服务容量。

Basic Information
目录编号:
54201
目录名称:
STARLINK-5199
国际标识:
2022-141AW
轨道中心:
EARTH
卫星名称:
星链-5199
卫星全名:
星链-5199 (STARLINK-5199 )
卫星状态:
在轨 (已飞行1414 天)
发射日期:
2022-10-28 UTC
国别 :
美国 (US)
星等 :
--
This satellite is enrolled in the Space Conjunction Data Service (SCDS) and the current flight risk assessment level is: High Risk
Orbit Information
数据来源 国际轨道数据 AOE轨道数据
星历时间 2026-09-09T17:23:29+0800
1天前
查看轨道信息
2026-09-10T18:00:00+0800
22小时前
查看轨道信息
半长轴 6840.875km 6840.865km
偏心率 0.0001162 0.0000902
轨道倾角 53.159° 53.157°
近地点辐角 78.950° 65.675°
升交点赤经 239.518° 234.727°
平近点角 281.163° 201.465°
近地点 461.943km 462.11km
远地点 463.533km 463.346km
周期 93.848分钟 93.848分钟
每日圈数 15.343886 15.343918
Detailed Information
固有亮度:
5
最大亮度:
2.5
卫星平台:
Starlink v1.5
覆盖范围:
全球
运营商:
太空探索技术公司
运营商所在国:
美国
制造商(研发单位):
太空探索技术公司
制造商所在国:
美国
使用方式:
暂无
Satellite Introduction
星链(Starlink)计划是由太空探索技术公司(SpaceX)提出的一个巨型低轨卫星互联网星座项目,计划在2019年至2024年间在太空搭建由约1.2万颗卫星组成的“星链”网络,其中1584颗将部署在地球上空550千米处的近地轨道,并从2020年开始工作。该卫星仍在工作。
2D Orbit Map
3D Orbit Map
Orbit Altitude Analysis Chart
Orbit Inclination Analysis Chart
Orbit Comprehensive Analysis Chart
View Comprehensive Chart
Conjunction Data List
Event ID Objects TCA Miss Dist (km) Collision Risk Probability Collision Risk Index (CRI) Action
CDM_260913-033805-420106-946421
2026-09-13T
03:38:26+0000
0.374 km
远距离
1.418696E-4 高风险 0.78
CDM_260913-052005-420106-418921
2026-09-13T
05:20:18+0000
0.895 km
远距离
2.420134E-5 中风险 0.63
CDM_260913-042305-420106-938121
2026-09-13T
04:23:21+0000
0.848 km
远距离
2.150797E-5 中风险 0.62
CDM_260913-095105-420106-938121
2026-09-13T
09:51:37+0000
0.874 km
远距离
1.939124E-5 中风险 0.61
CDM_260912-050105-420106-190324
OBJECT K (61903)
2026-09-12T
05:01:02+0000
1.879 km
极远距离
2.997604E-6 低风险 0.45
CDM_260913-011705-420106-946421
2026-09-13T
01:17:45+0000
1.324 km
极远距离
2.984514E-6 低风险 0.44
CDM_260913-034605-420106-418921
2026-09-13T
03:46:30+0000
2.360 km
极远距离
1.291021E-6 低风险 0.37
CDM_260913-055705-420106-938121
2026-09-13T
05:57:08+0000
2.535 km
极远距离
8.924766E-7 极低风险 0.34
CDM_260913-112505-420106-938121
2026-09-13T
11:25:25+0000
2.726 km
极远距离
8.014946E-7 极低风险 0.33
Miss Distance Evolution Trend with All Objects
Collision Probability Evolution Trend with All Objects